[[{"header":{"parameterUnit":"m.s-1","parameterCategory":1,"la1":30.2991,"la2":30.254,"lo1":-89.0895,"lo2":-89.0444,"dy":0.0017,"dx":0.0017,"nx":28,"ny":28,"refTime":"2025-02-02T09:00:00:Z","depth":0,"parameterNumber":2,"parameterNumberName":"U-component_of_WINDS"},"data":[0,0,0,0,0,0,0,0,0,0,0,0,0,0,0,0,0,0,0,0,0,0,0,0,0,0,0,0,0,0,0,0,0,0,0,0,0,0,0,0,0,0,0,0,0,0,0,0,0,0,0,0,0,0,0,0,0,0,0.7033,0.7033,0,0.7039,0.7039,0.7039,0.6999,0.6998,0.6996,0.6995,0.7002,0.7003,0.7004,0,0,0,0,0,0,0,0,0,0,0,0,0,0.6985,0.6987,0.7033,0.7033,0.7033,0.7039,0.7039,0.7039,0.6999,0.6998,0.6996,0.6995,0.7001,0.7003,0.7004,0,0,0,0,0,0,0,0,0,0,0,0,0,0.7,0.6987,0.7033,0.7014,0.7012,0.7039,0.7039,0.7039,0.6999,0.6998,0.6996,0.6994,0.7001,0.7003,0.7004,0.705,0,0,0.701,0.7011,0,0,0,0,0,0,0,0,0.7,0.7002,0.7016,0.7015,0.7013,0.7016,0.7025,0.7043,0.7,0.7004,0.6995,0.6993,0.7008,0.7009,0.7014,0.705,0.7051,0.701,0.7011,0.7012,0.7013,0,0,0,0,0,0,0,0.6999,0.7002,0.7035,0.7017,0.7015,0.7004,0.7005,0.7028,0.7015,0.7004,0.7001,0.7002,0.7007,0.7012,0.7014,0.7051,0.701,0.7012,0.7013,0.7014,0.7125,0.7126,0,0,0,0,0,0,0.7,0.7001,0.7035,0.7035,0.7002,0.7007,0.7007,0.7017,0.7015,0.7013,0.7003,0.7,0.701,0.7012,0.7014,0.7067,0.7012,0.7014,0.7015,0.7123,0.7125,0.7127,0,0,0,0,0,0,0.6999,0.7004,0.7035,0.7017,0.7021,0.7009,0.7021,0.7018,0.7024,0.7015,0.7013,0.7011,0.7009,0.7011,0.7041,0.7067,0.7015,0.7016,0.7121,0.7124,0.7126,0.7174,0,0,0,0,0,0,0.6998,0.7004,0.7021,0.7018,0.7022,0.7062,0.7023,0.7019,0.7027,0.7023,0.7022,0.702,0.7008,0.7039,0.7043,0.7068,0.7018,0.7118,0.7122,0.7125,0.7171,0.7179,0.7185,0,0,0,0,0,0.6997,0.7034,0.7022,0.7026,0.7043,0.7064,0.7066,0.7051,0.7029,0.7046,0.7041,0.702,0.7063,0.7042,0.7047,0.7073,0.7117,0.7121,0.7125,0.7167,0.7177,0.7185,0,0,0,0,0,0,0.704,0.7034,0.702,0.7058,0.7062,0.7057,0.7078,0.7062,0.7072,0.7067,0.7048,0.7048,0.7081,0.708,0.7057,0.7117,0.7086,0.7091,0.7117,0.7126,0.7133,0.7133,0.7019,0,0,0,0,0,0.7054,0.7072,0.7065,0.7099,0.7102,0.709,0.7098,0.7086,0.7089,0.7091,0.7088,0.7092,0.7106,0.7116,0.7129,0.717,0.7169,0.719,0.7198,0.7204,0.7209,0.7231,0.724,0.7141,0.7141,0.7141,0,0,0.7083,0.7082,0.7094,0.7108,0.7109,0.7128,0.7092,0.7113,0.7126,0.7094,0.7122,0.712,0.7123,0.7159,0.7175,0.7159,0.7236,0.7209,0.7214,0.7216,0.7236,0.7245,0.7254,0.7144,0.7143,0.7143,0,0,0.7146,0.7147,0.7175,0.7178,0.7181,0.7172,0.7179,0.7177,0.7175,0.7203,0.7179,0.7195,0.722,0.7223,0.7228,0.7292,0.7273,0.7296,0.7335,0.7357,0.7365,0.7372,0.7394,0.7403,0.7301,0.7301,0.7301,0,0.7182,0.7209,0.7192,0.7215,0.7221,0.7193,0.7222,0.7225,0.7232,0.7237,0.722,0.7251,0.7251,0.7287,0.7303,0.7308,0.7315,0.7297,0.7365,0.7372,0.7378,0.7399,0.7408,0.7304,0.7304,0.7304,0.7303,0,0.7253,0.7272,0.7295,0.7302,0.7312,0.7337,0.7324,0.7335,0.7322,0.7316,0.7345,0.7344,0.7356,0.7364,0.7351,0.7398,0.7389,0.7368,0.7337,0.739,0.741,0.7418,0.7308,0.7307,0.7306,0.7306,0,0,0.7344,0.7342,0.735,0.7353,0.7354,0.7369,0.7393,0.7405,0.7415,0.7421,0.744,0.7462,0.7444,0.7449,0.7437,0.7456,0.7507,0.7433,0.7433,0.7447,0.7558,0.7574,0.7584,0.7494,0.7496,0.7497,0.7558,0,0.7405,0.7447,0.7432,0.7474,0.7492,0.7465,0.7486,0.7489,0.7484,0.7498,0.7492,0.7508,0.7482,0.7485,0.7502,0.7497,0.7529,0.7492,0.7512,0.7513,0.7513,0.7594,0.761,0.7669,0.7566,0.7567,0.7568,0,0.7482,0.7491,0.7535,0.7534,0.754,0.756,0.7569,0.7583,0.7586,0.758,0.7587,0.757,0.7594,0.7562,0.7594,0.757,0.7577,0.7576,0.7578,0.7579,0.7544,0.7598,0.7687,0.7696,0.758,0.7579,0.7578,0,0.7544,0.7567,0.7597,0.76,0.7598,0.7613,0.7613,0.7614,0.7622,0.763,0.7635,0.7646,0.7652,0.7661,0.7648,0.7626,0.7682,0.765,0.7679,0.7679,0.7692,0.7691,0.7783,0.7696,0.7696,0.7696,0.7696,0,0.7614,0.7642,0.7624,0.7642,0.7673,0.7656,0.7686,0.7683,0.7685,0.7702,0.7679,0.7696,0.7677,0.7692,0.7682,0.771,0.7713,0.7709,0.7706,0.7711,0.7712,0.7716,0.7712,0.7698,0.7698,0.7697,0.7697,0,0.7689,0.7678,0.7708,0.7704,0.7704,0.7727,0.7723,0.774,0.7733,0.7754,0.7758,0.7748,0.7764,0.7751,0.7767,0.776,0.7798,0.7789,0.7797,0.7794,0.7824,0.7822,0.7922,0.7934,0.784,0.7841,0.7842,0,0.7734,0.7755,0.7754,0.7763,0.7765,0.7781,0.7789,0.7773,0.7782,0.7787,0.7803,0.7817,0.7827,0.7854,0.7848,0.786,0.7851,0.7885,0.7853,0.7857,0.7852,0.7851,0.7853,0.7892,0.7893,0.7894,0.7895,0,0.7816,0.781,0.7822,0.7833,0.7844,0.7851,0.7857,0.7867,0.785,0.7862,0.7878,0.7886,0.7902,0.7916,0.7926,0.7926,0.7908,0.7905,0.7913,0.7918,0.7922,0.792,0.7815,0.7903,0.7902,0.7902,0.7901,0.7901,0.7878,0.7895,0.7897,0.7911,0.7914,0.792,0.7936,0.7931,0.7944,0.7956,0.7945,0.7965,0.7967,0.7978,0.798,0.7995,0.798,0.7991,0.7994,0.7997,0.8001,0.792,0.7996,0.7996,0.7996,0.7996,0.7996,0,0.7959,0.7958,0.7972,0.7981,0.7993,0.7975,0.798,0.7991,0.8009,0.8012,0.8023,0.8041,0.8055,0.805,0.8062,0.8075,0.8067,0.8079,0.8078,0.8078,0.8013,0.8005,0.8085,0.8085,0.8085,0.8085,0.8085,0.8085,0.8002,0.8031,0.8024,0.8054,0.8053,0.8072,0.8077,0.8082,0.8085,0.8107,0.8118,0.8115,0.8114,0.8126,0.8138,0.8136,0.8142,0.8156,0.8152,0.8091,0.8082,0.8074,0.8067,0.8158,0.8158,0.8215,0.8216,0.8216]},{"header":{"parameterUnit":"m.s-1","parameterCategory":1,"la1":30.2991,"la2":30.254,"lo1":-89.0895,"lo2":-89.0444,"dy":0.0017,"dx":0.0017,"nx":28,"ny":28,"refTime":"2025-02-02T09:00:00:Z","depth":0,"parameterNumber":3,"parameterNumberName":"V-component_of_WINDS"},"data":[0,0,0,0,0,0,0,0,0,0,0,0,0,0,0,0,0,0,0,0,0,0,0,0,0,0,0,0,0,0,0,0,0,0,0,0,0,0,0,0,0,0,0,0,0,0,0,0,0,0,0,0,0,0,0,0,0,0,-0.4619,-0.462,0,-0.4676,-0.4677,-0.4678,-0.4713,-0.4713,-0.4713,-0.4714,-0.4772,-0.4773,-0.4775,0,0,0,0,0,0,0,0,0,0,0,0,0,-0.4541,-0.4542,-0.4619,-0.462,-0.462,-0.4676,-0.4677,-0.4678,-0.4713,-0.4713,-0.4713,-0.4714,-0.4771,-0.4773,-0.4775,0,0,0,0,0,0,0,0,0,0,0,0,0,-0.4584,-0.4542,-0.4619,-0.4645,-0.4648,-0.4676,-0.4677,-0.4678,-0.4713,-0.4713,-0.4714,-0.4714,-0.4771,-0.4773,-0.4775,-0.4782,0,0,-0.4781,-0.4782,0,0,0,0,0,0,0,0,-0.4581,-0.4587,-0.464,-0.4643,-0.4646,-0.4688,-0.4671,-0.4713,-0.4713,-0.4688,-0.4714,-0.4714,-0.4744,-0.4748,-0.4758,-0.4785,-0.4787,-0.4781,-0.4783,-0.4783,-0.4784,0,0,0,0,0,0,0,-0.4578,-0.4584,-0.4642,-0.4641,-0.4645,-0.4654,-0.466,-0.4679,-0.4714,-0.469,-0.4693,-0.4699,-0.4745,-0.4756,-0.476,-0.4788,-0.4781,-0.4783,-0.4784,-0.4785,-0.4824,-0.4824,0,0,0,0,0,0,-0.4571,-0.4582,-0.464,-0.4643,-0.4614,-0.4655,-0.4662,-0.4674,-0.4713,-0.472,-0.4699,-0.4701,-0.4752,-0.4757,-0.4762,-0.4773,-0.4783,-0.4785,-0.4787,-0.4824,-0.4824,-0.4824,0,0,0,0,0,0,-0.4569,-0.4576,-0.4638,-0.4613,-0.4622,-0.4656,-0.4669,-0.4675,-0.4686,-0.472,-0.4726,-0.4703,-0.4753,-0.4759,-0.4777,-0.4776,-0.4786,-0.4788,-0.4825,-0.4824,-0.4824,-0.4796,0,0,0,0,0,0,-0.4567,-0.4575,-0.4578,-0.4613,-0.4623,-0.4651,-0.4669,-0.4676,-0.4689,-0.4692,-0.4726,-0.4732,-0.4753,-0.4774,-0.4779,-0.4779,-0.479,-0.4825,-0.4825,-0.4824,-0.4797,-0.4794,-0.4792,0,0,0,0,0,-0.4564,-0.4567,-0.4578,-0.4585,-0.4627,-0.4651,-0.4657,-0.4682,-0.4689,-0.4692,-0.4715,-0.4731,-0.4775,-0.4775,-0.4781,-0.4782,-0.4825,-0.4825,-0.4824,-0.4798,-0.4795,-0.4792,0,0,0,0,0,0,-0.4531,-0.4572,-0.4585,-0.4599,-0.4622,-0.4657,-0.4662,-0.4678,-0.4698,-0.47,-0.473,-0.4737,-0.4752,-0.4769,-0.4768,-0.4791,-0.4802,-0.4803,-0.478,-0.4777,-0.4775,-0.4771,-0.4792,0,0,0,0,0,-0.4525,-0.4541,-0.4577,-0.4586,-0.4597,-0.4627,-0.4639,-0.4656,-0.468,-0.469,-0.4713,-0.4736,-0.4755,-0.4767,-0.4787,-0.48,-0.4808,-0.4803,-0.4801,-0.4799,-0.4799,-0.4808,-0.4806,-0.4823,-0.4823,-0.4823,0,0,-0.4514,-0.4538,-0.4547,-0.458,-0.46,-0.4616,-0.4635,-0.4651,-0.4663,-0.4692,-0.4711,-0.4729,-0.4756,-0.4772,-0.478,-0.4786,-0.4796,-0.4798,-0.4796,-0.4798,-0.4807,-0.4806,-0.4804,-0.4822,-0.4822,-0.4822,0,0,-0.4501,-0.4521,-0.4532,-0.4551,-0.458,-0.46,-0.4603,-0.4637,-0.465,-0.4669,-0.4691,-0.4706,-0.4739,-0.4758,-0.4771,-0.4767,-0.4783,-0.4773,-0.4761,-0.4769,-0.4768,-0.4767,-0.4766,-0.4765,-0.4773,-0.4773,-0.4773,0,-0.4483,-0.4508,-0.4535,-0.455,-0.4564,-0.4592,-0.4603,-0.462,-0.4654,-0.4664,-0.467,-0.4712,-0.4732,-0.4753,-0.4752,-0.4762,-0.4767,-0.4769,-0.4766,-0.4765,-0.4765,-0.4764,-0.4763,-0.4771,-0.4772,-0.4772,-0.4772,0,-0.4485,-0.4502,-0.4507,-0.4539,-0.4554,-0.4567,-0.4597,-0.4609,-0.4625,-0.4645,-0.4665,-0.469,-0.4716,-0.4722,-0.4738,-0.4745,-0.4749,-0.476,-0.4771,-0.4761,-0.4761,-0.4761,-0.4769,-0.477,-0.477,-0.4771,0,0,-0.4451,-0.45,-0.4501,-0.4517,-0.4551,-0.4565,-0.458,-0.4605,-0.4615,-0.4638,-0.4651,-0.4678,-0.4689,-0.4705,-0.4724,-0.4731,-0.4727,-0.4742,-0.4743,-0.4738,-0.4737,-0.4728,-0.4727,-0.4737,-0.4738,-0.4738,-0.4735,0,-0.4444,-0.4471,-0.4497,-0.4515,-0.4532,-0.4559,-0.4572,-0.4594,-0.4614,-0.4631,-0.4652,-0.4671,-0.4684,-0.4694,-0.4702,-0.4725,-0.4727,-0.4726,-0.475,-0.4751,-0.4742,-0.4727,-0.4718,-0.4714,-0.4735,-0.4735,-0.4735,0,-0.4439,-0.4461,-0.4481,-0.4515,-0.4523,-0.4534,-0.456,-0.4575,-0.4602,-0.4616,-0.4634,-0.4654,-0.4671,-0.4681,-0.4705,-0.4704,-0.4715,-0.4728,-0.4729,-0.4732,-0.4742,-0.473,-0.4713,-0.4712,-0.4735,-0.4735,-0.4735,0,-0.4413,-0.4448,-0.4464,-0.4477,-0.4517,-0.4524,-0.4541,-0.4568,-0.4582,-0.4605,-0.4614,-0.4638,-0.4652,-0.467,-0.4696,-0.4701,-0.4718,-0.473,-0.473,-0.4729,-0.4732,-0.4731,-0.4717,-0.4739,-0.4739,-0.4739,-0.4739,0,-0.4402,-0.4413,-0.4453,-0.4464,-0.4477,-0.4507,-0.452,-0.4539,-0.4563,-0.4578,-0.4603,-0.4616,-0.465,-0.4667,-0.4688,-0.4705,-0.4711,-0.4723,-0.4728,-0.4721,-0.4719,-0.4728,-0.4729,-0.4739,-0.4739,-0.4739,-0.4739,0,-0.4375,-0.4402,-0.4423,-0.4459,-0.4469,-0.4477,-0.4509,-0.452,-0.4541,-0.456,-0.4566,-0.4599,-0.4621,-0.4649,-0.468,-0.4693,-0.4709,-0.4717,-0.47,-0.4703,-0.4701,-0.4701,-0.4692,-0.4693,-0.4715,-0.4714,-0.4714,0,-0.4366,-0.4375,-0.4413,-0.4425,-0.4441,-0.446,-0.4475,-0.4504,-0.4519,-0.455,-0.4558,-0.4582,-0.4603,-0.4637,-0.4664,-0.4688,-0.4697,-0.4692,-0.4701,-0.4693,-0.4697,-0.4696,-0.4698,-0.469,-0.469,-0.4689,-0.4689,0,-0.4347,-0.436,-0.4381,-0.4406,-0.4423,-0.4444,-0.4466,-0.4475,-0.4509,-0.4524,-0.4547,-0.4563,-0.4595,-0.4619,-0.4647,-0.4665,-0.4683,-0.4686,-0.4688,-0.468,-0.467,-0.4676,-0.4694,-0.4686,-0.4686,-0.4687,-0.4687,-0.4687,-0.4329,-0.4339,-0.4368,-0.4389,-0.441,-0.443,-0.4443,-0.4466,-0.4486,-0.4514,-0.4531,-0.4553,-0.4581,-0.462,-0.4638,-0.4656,-0.4663,-0.4664,-0.4665,-0.4665,-0.4663,-0.4667,-0.4661,-0.4661,-0.4661,-0.4661,-0.4662,0,-0.4312,-0.4332,-0.4352,-0.4382,-0.44,-0.4416,-0.4442,-0.4455,-0.4475,-0.4499,-0.452,-0.4547,-0.457,-0.4599,-0.4625,-0.4634,-0.4643,-0.464,-0.464,-0.4644,-0.4655,-0.4652,-0.4632,-0.4632,-0.4632,-0.4632,-0.4632,-0.4632,-0.4305,-0.4323,-0.434,-0.4368,-0.4388,-0.4411,-0.4424,-0.4444,-0.4464,-0.4493,-0.4512,-0.4532,-0.4558,-0.4586,-0.4609,-0.4617,-0.4625,-0.4619,-0.463,-0.464,-0.4643,-0.4645,-0.4642,-0.4621,-0.4621,-0.4617,-0.4617,-0.4617]}]]